Location: Gleizolles
(44.4833°N, 6.7667°E)
Time: 04:16:55
(UTC+00:00)

Vanguard 1 Rocket - Pass Details

Date: 24 June 2024
Orbit: 650 x 4219 km, 34.3° (Epoch: 15 July)

Event Time Altitude Azimuth Distance (km) Brightness Sun altitude
Rises 03:16:16 0° 261° (W) 6,091 11.1 -5.5°
Reaches altitude 10° 03:19:38 10° 258° (WSW) 5,456 10.8 -5.0°
Maximum altitude 03:37:48 64° 183° (S) 4,112 10.6 -2.5°
Drops below altitude 10° 04:03:27 10° 110° (ESE) 7,307 12.6 1.3°
Sets 04:08:53 0° 108° (ESE) 8,148 12.9 2.1°
